Location: Brachstadt
(48.6975°N, 10.6755°E)
Time: 12:47:35
(UTC+00:00)

Envisat - Pass Details

Date: 29 November 2022
Orbit: 763 x 765 km, 98.2° (Epoch: 06 February)

Event Time Altitude Azimuth Distance (km) Brightness Sun altitude
Rises 05:08:02 0° 3° (N) 3,246 6.1 -15.6°
Reaches altitude 10° 05:10:53 10° 347° (NNW) 2,315 5.2 -15.1°
Enters shadow 05:14:01 20° 309° (NW) 1,738 4.3 -14.6°
